#timestamp,LO_Frequency,Hit 
1497790815.0,286046996.9,N
1497790815.9,286046996.9,N
1497790835.8,286046998.9,N
1497790855.6,286046998.9,N
1497790875.4,286046998.4,N
1497790895.3,286046999.0,N
1497790915.1,286046996.6,N
1497790916.0,286046996.6,N
1497790935.8,286046999.2,N
1497790955.7,286046996.5,N
1497790975.5,286046999.1,N
1497790995.3,286046996.8,N
1497791015.1,286046997.7,N
1497791035.9,286046997.2,N
1497791055.7,286046997.1,N
1497791075.5,286046998.0,N
1497791095.4,286046997.7,N
1497791115.2,286046997.3,N
1497791135.0,286046994.9,N
1497791135.9,286046994.9,N
1497791155.8,286046995.0,N
1497791175.6,286046995.0,N
1497791195.4,286046995.3,N
1497791215.3,286046996.2,N
1497791235.1,286046993.8,Y
1497791236.0,286046993.8,Y
1497791255.8,286047000.5,N
1497791275.7,286047000.8,N
1497791295.5,286046998.3,N
1497791315.3,286047001.1,N
1497791335.2,286046999.4,N
1497791355.9,286046999.4,N
1497791375.7,286046997.0,N
1497791395.6,286046997.7,N
1497791415.4,286046995.6,N
1497791435.2,286046995.1,N
1497791455.0,286046996.7,N
1497791455.9,286046996.7,N
1497791475.8,286046999.1,N
1497791495.6,286046999.4,N
1497791515.4,286046999.0,N
1497791535.3,286046999.5,N
1497791555.1,286046998.7,N
1497791556.0,286046998.7,N
1497791575.8,286046996.5,N
1497791595.7,286046999.2,N
1497791615.5,286046999.3,N
1497791635.3,286046999.0,N
1497791655.2,286046996.6,N
1497791675.9,286046999.5,N
1497791695.7,286046997.3,N
1497791715.5,286046997.4,N
1497791735.4,286046994.9,N
1497791755.2,286046995.5,N
1497791775.0,286046995.5,N
1497791775.9,286046995.5,N
1497791795.8,286046995.8,N
1497791815.6,286046995.9,N
1497791835.4,286046994.7,N
1497791855.3,286046992.4,Y
1497791875.1,286046995.9,N
1497791895.8,286046993.9,Y
1497791915.7,286046997.3,N
1497791935.5,286046997.5,N
1497791955.3,286046997.7,N
1497791975.2,286046997.5,N
1497791995.9,286046996.0,N
1497792015.7,286046995.7,N
1497792035.6,286046996.3,N
1497792055.4,286046993.3,Y
1497792075.2,286046996.9,N
1497792095.1,286046997.8,N
1497792096.0,286046997.8,N
1497792115.8,286046994.9,N
1497792135.6,286046997.4,N
1497792155.5,286046997.6,N
1497792175.3,286046997.9,N
1497792195.1,286046997.5,N
1497792215.8,286046997.1,N
1497792235.7,286046997.7,N
1497792255.5,286046997.7,N
1497792275.3,286046995.0,N
1497792295.2,286046995.2,N
1497792315.9,286046995.8,N
1497792335.7,286046995.6,N
1497792355.6,286046995.4,N
1497792375.4,286046995.1,N
1497792395.2,286046996.3,N
1497792415.1,286046994.2,Y
1497792416.0,286046994.2,Y
1497792435.8,286047001.2,N
1497792455.6,286046998.2,N
1497792475.5,286046998.9,N
1497792495.3,286046999.0,N
1497792515.1,286046998.5,N
1497792535.9,286047000.5,N
1497792555.7,286046998.2,N
1497792575.5,286046999.4,N
1497792595.3,286046998.9,N
1497792615.2,286046996.5,N
1497792635.9,286046996.6,N
1497792655.7,286046997.1,N
1497792675.6,286046997.2,N
1497792695.4,286046997.1,N
1497792715.2,286046997.4,N
1497792735.1,286046997.1,N
1497792736.0,286046997.1,N
1497792755.8,286046996.6,N
1497792775.6,286046996.7,N
1497792795.5,286046997.7,N
1497792815.3,286046997.6,N
1497792835.1,286046997.9,N
1497792855.8,286046997.2,N
1497792875.7,286046997.9,N
1497792895.5,286046998.0,N
1497792915.3,286046997.3,N
1497792935.2,286046997.0,N
1497792955.9,286046997.2,N
1497792975.7,286046996.7,N
1497792995.6,286046997.0,N
1497793015.4,286046996.9,N
1497793035.2,286046999.6,N
1497793055.0,286046996.8,N
1497793056.0,286046996.8,N
1497793075.8,286046995.0,N
1497793095.6,286046997.2,N
1497793115.4,286046995.2,N
1497793135.3,286046995.3,N
1497793155.1,286046997.5,N
1497793175.8,286046997.3,N
1497793195.7,286047004.4,N
1497793215.5,286047000.0,N
1497793235.3,286046997.2,N
1497793255.2,286046997.1,N
1497793275.9,286046996.7,N
1497793295.7,286046997.0,N
1497793315.5,286046999.2,N
1497793335.4,286046996.5,N
1497793355.2,286046997.6,N
1497793375.0,286046997.2,N
1497793375.9,286046997.2,N
1497793395.8,286046995.6,N
1497793415.6,286046993.3,Y
1497793435.4,286046998.3,N
1497793455.3,286047000.1,N
1497793475.1,286047003.9,N
1497793495.8,286047007.0,Y
1497793515.7,286047007.7,Y
1497793535.5,286047010.0,Y
1497793555.4,286047012.1,Y
1497793575.2,286047012.7,Y
1497793595.9,286047014.5,Y
1497793615.7,286047018.5,Y
1497793635.6,286047020.1,Y
1497793655.4,286047019.2,Y
1497793675.3,286047020.7,Y
1497793695.1,286047031.6,Y
1497793715.9,286047036.1,Y
1497793735.7,286047040.5,Y
1497793755.5,286047042.3,Y
1497793775.4,286047042.0,Y
1497793795.2,286047043.7,Y
1497793815.1,286047042.4,Y
1497793816.0,286047042.4,Y
1497793835.8,286047042.1,Y
1497793855.6,286047043.5,Y
1497793875.5,286047044.7,Y
1497793895.3,286047045.9,Y
1497793915.2,286047043.1,Y
1497793935.9,286047043.6,Y
1497793955.8,286047044.3,Y
1497793975.6,286047042.5,Y
1497793995.4,286047040.2,Y
1497794015.3,286047036.5,Y
1497794035.1,286047037.1,Y
1497794055.8,286047035.7,N
1497794075.7,286047034.2,N
1497794095.5,286047032.3,N
1497794115.3,286047030.3,N
1497794135.2,286047031.5,N
1497794155.0,286047029.8,N
1497794155.9,286047029.8,N
1497794175.7,286047028.1,N
1497794195.6,286047026.2,N
1497794215.4,286047024.4,N
1497794235.2,286047024.6,N
1497794255.1,286047026.1,N
1497794256.0,286047026.1,N
1497794275.8,286047028.2,N
1497794295.6,286047030.0,N
1497794315.5,286047029.2,N
1497794335.3,286047028.8,N
1497794355.1,286047029.5,N
1497794375.9,286047029.2,N
1497794395.7,286047031.1,N
